Presure
116 114 114 112 124 122 112 128 124 118 126 128 114 111 129 116 99 110 134 107 108 135 103 129 102 122 123 124 130 124 123 127 129 147 190 189 207 202 197 193 195 204 189 190
123 113 124 116 113 103 125 112 110 107 102 126 115 114 95 125 109 97 144 131 110 134 137 122 122 115 121 111 120 115 137 130 126 124 138 151 184 200 191 198 188 195 196 199
114 117 114 117 119 117 111 126 113 123 128 122 121 107 123 111 121 139 148 118 112 137 99 133 127 118 121 122 117 126 135 147 137 115 127 161 160 188 197 199 188 206 189 195
109 117 114 121 114 119 107 113 113 113 112 120 90 121 115 100 125 139 131 131 128 128 131 132 120 111 103 113 114 124 157 169 140 126 113 182 166 187 115 193 205 176 185 189
115 129 123 112 122 121 124 128 112 123 126 111 104 114 119 131 105 132 129 97 145 131 134 140 131 105 117 111 105 117 101 162 131 143 170 166 132 173 159 155 185 96 190 179
124 153 114 117 141 117 125 108 111 87 97 96 91 90 109 121 124 92 121 140 115 131 122 132 125 105 115 115 124 113 131 133 122 174 126 170 139 150 178 180 177 176 193 171
104 95 115 126 137 113 83 104 135 121 130 118 114 114 140 112 112 119 109 121 130 125 131 129 126 122 130 127 107 126 160 114 185 173 153 176 126 131 119 177 180 175 172 193
158 106 115 114 109 112 122 111 133 140 111 141 122 122 119 111 148 157 113 133 119 98 128 130 127 112 124 137 119 166 135 98 130 185 155 173 132 134 170 178 174 139 174 173
99 116 121 144 138 146 107 82 104 135 129 113 115 115 108 136 125 129 123 108 127 138 137 138 121 115 140 183 125 135 140 116 142 187 142 167 128 178 169 177 177 175 183 180
164 118 122 81 148 128 76 115 112 131 137 123 127 136 112 124 105 106 130 122 126 139 156 78 124 126 133 167 171 76 126 111 193 179 168 117 133 167 172 177 183 182 189 170
196 185 151 209 186 112 123 121 143 117 145 117 121 114 99 92 90 135 121 123 136 124 146 120 112 139 146 137 154 145 129 171 189 163 178 81 79 152 173 176 183 186 185 172
220 231 159 85 105 173 141 139 217 119 113 106 201 123 199 118 129 129 113 132 134 191 192 120 126 134 173 170 124 175 97 154 182 178 147 170 173 139 176 179 180 189 190 181
225 157 134 229 227 227 170 213 202 126 208 217 178 123 150 151 94 80 200 186 149 159 199 205 195 182 184 141 96 211 205 178 191 189 182 83 181 178 181 184 188 183 183 178
219 225 227 232 187 227 223 219 217 134 143 187 200 101 70 100 76 97 133 138 189 200 136 198 198 126 181 141 195 165 200 179 198 184 182 184 184 192 188 181 164 189 196 184
226 225 220 200 209 156 204 223 216 207 156 112 143 107 187 190 187 151 181 136 145 197 194 204 196 109 183 128 189 187 177 116 181 183 191 182 144 192 195 172 167 184 174 182
188 95 78 218 222 150 216 225 172 218 213 208 138 203 132 191 85 130 154 182 165 206 198 199 164 136 195 197 193 184 188 77 79 201 193 182 191 194 194 194 177 190 181 142
228 206 92 243 221 199 218 225 198 168 169 190 207 214 157 159 138 192 140 203 211 203 205 148 208 219 196 80 113 115 187 197 186 198 194 190 191 192 192 206 191 191 160 188
196 231 226 236 96 224 242 230 159 162 229 167 125 156 205 212 155 209 222 223 207 216 209 228 212 141 123 71 196 216 157 194 200 202 196 186 192 192 205 193 203 184 197 177
248 232 227 219 225 110 236 222 219 187 222 229 220 215 213 220 219 221 221 219 229 228 227 180 99 70 224 177 195 215 203 203 198 202 198 199 196 202 182 207 185 188 202 197
239 250 106 230 229 228 214 213 94 243 237 227 226 226 226 221 224 226 205 238 237 213 95 81 106 224 215 211 225 107 202 204 211 209 213 202 188 194 200 189 190 178 192 192
241 210 237 234 224 237 170 193 234 231 128 133 224 221 133 122 226 230 234 228 226 223 223 224 222 215 211 234 226 206 218 209 222 210 221 215 210 214 204 202 191 191 186 191
252 142 237 248 219 144 217 154 193 185 222 107 227 232 143 226 228 227 228 174 226 225 222 217 224 232 233 227 209 212 224 229 217 233 220 215 210 195 197 195 186 183 187 195
256 234 224 115 236 160 221 230 224 221 222 223 229 227 229 228 220 100 225 226 226 222 223 223 223 236 229 243 220 216 210 224 215 214 204 195 194 194 192 191 196 202 214 214
88 84 83 129 224 228 231 232 227 224 221 220 218 149 223 225 231 233 226 223 222 223 221 227 228 221 217 215 213 211 227 221 218 212 208 202 206 200 205 212 219 204 209 224
81 79 85 101 224 161 223 225 173 224 219 220 220 229 241 216 234 234 228 226 227 230 223 225 222 215 213 206 219 211 213 213 217 216 219 214 219 216 203 180 204 225 211 206
123 230 221 219 220 214 216 221 220 221 222 222 220 217 215 216 216 229 230 226 224 230 224 220 219 221 215 215 218 219 218 214 213 213 207 206 210 217 219 221 259 210 243 231
Wind_Speed
57 55 64 43 48 56 48 49 45 43 51 49 37 37 40 45 32 37 49 41 42 41 41 44 25 52 53 53 51 53 54 49 50 66 47 44 40 38 37 36 35 29 35 33
65 58 69 51 50 41 58 44 43 42 40 55 40 40 18 43 44 27 57 52 52 52 49 45 51 55 54 51 57 43 55 54 51 50 57 63 45 43 39 38 38 36 37 36
60 65 66 58 54 55 53 58 51 53 53 53 51 38 46 44 47 55 63 49 48 55 29 49 50 58 56 57 60 61 51 68 56 46 55 51 65 50 46 42 37 35 34 36
60 66 68 60 57 59 55 57 54 52 50 50 22 51 46 30 53 60 55 50 51 51 54 55 56 57 41 54 57 65 75 65 63 58 49 58 58 54 51 47 45 40 37 38
67 75 73 60 70 62 62 67 57 57 51 51 40 52 54 58 37 58 57 30 59 53 54 59 54 50 60 56 38 63 34 61 62 68 60 72 57 61 55 54 48 36 43 43
78 92 66 71 82 62 63 50 44 25 36 45 18 27 64 57 54 25 56 62 49 56 47 54 56 37 58 60 67 61 66 67 61 55 61 60 63 65 63 60 59 57 52 45
66 48 68 71 78 61 28 36 73 56 57 59 59 56 73 46 46 56 44 45 56 57 55 51 56 58 62 61 51 67 76 57 44 57 83 57 62 64 45 63 60 58 60 58
106 63 77 75 65 64 74 45 72 72 47 62 62 64 70 53 69 87 46 60 55 38 57 59 58 56 63 68 65 66 72 35 68 47 63 60 62 64 67 65 65 57 59 56
58 72 82 85 92 99 54 34 50 67 64 55 61 63 64 79 62 69 59 44 61 61 58 61 60 56 68 74 68 67 72 52 69 44 62 74 63 63 69 66 70 67 58 62
92 73 83 35 87 82 28 63 52 63 67 57 66 68 73 84 36 23 64 49 61 65 70 16 61 67 70 83 80 10 69 53 48 59 73 42 64 75 68 70 70 72 65 63
101 102 91 114 96 70 76 66 79 56 71 52 64 65 51 9 16 78 51 57 65 60 76 60 53 74 74 62 86 72 63 79 59 85 60 32 33 70 73 73 73 71 69 64
109 111 111 26 49 95 91 86 96 67 60 22 86 69 64 69 87 78 52 70 69 85 85 62 68 69 92 90 67 78 38 76 69 70 50 74 69 72 72 76 79 78 68 63
106 63 70 105 104 98 106 87 86 74 88 89 71 60 90 45 39 18 84 85 76 78 86 80 83 79 87 78 32 60 54 80 61 61 66 42 68 72 73 74 75 73 71 66
101 108 108 104 91 88 96 90 88 78 82 79 76 48 12 54 17 36 73 75 84 86 70 82 80 48 77 80 73 73 61 83 58 67 73 69 68 72 73 70 79 69 68 66
113 112 104 88 92 83 93 86 86 91 95 54 57 43 74 75 88 75 84 74 79 86 86 81 81 38 85 68 74 78 77 39 76 74 70 74 64 73 76 72 79 71 75 68
92 20 34 91 92 59 96 91 83 77 77 79 70 74 86 82 22 73 85 102 67 86 87 81 58 75 77 72 75 82 75 32 39 73 72 78 73 75 73 71 73 70 72 62
115 98 32 96 92 86 104 81 72 61 71 69 77 73 83 84 78 97 72 90 85 87 82 56 80 72 77 18 36 37 78 73 81 75 77 76 76 76 71 76 73 73 65 73
87 112 106 98 22 103 85 90 61 61 78 65 63 69 84 86 59 92 92 87 81 82 84 76 76 45 34 20 75 68 73 77 77 78 76 73 78 79 81 75 73 70 73 78
101 109 109 94 105 47 90 74 81 65 83 90 84 82 85 90 91 88 86 85 82 76 73 54 24 17 68 68 78 68 74 72 76 77 77 79 78 76 77 78 74 72 72 77
101 102 34 107 107 93 76 79 21 89 86 83 85 87 89 91 89 86 77 83 78 66 23 24 47 74 71 72 69 46 72 74 80 80 81 76 77 74 67 69 72 83 76 83
103 93 104 98 97 87 60 67 84 82 31 44 84 87 50 54 86 84 81 74 73 74 78 80 79 75 75 72 67 70 74 74 77 78 75 71 71 71 72 70 75 80 85 88
103 57 88 90 84 66 79 49 59 57 75 44 82 82 53 85 85 81 77 58 80 80 80 78 84 79 73 69 69 72 76 75 73 70 68 67 66 69 71 76 82 87 91 101
100 88 82 34 74 61 87 79 74 73 74 73 72 73 76 80 79 52 77 81 82 80 83 83 80 74 75 66 69 73 72 75 70 69 67 69 71 76 82 86 91 99 105 105
30 24 23 50 72 74 79 77 75 74 73 72 70 64 73 76 79 82 81 79 80 83 82 85 79 75 77 75 78 76 74 77 74 76 78 79 87 85 93 99 104 96 102 110
19 13 28 47 72 51 77 74 67 74 70 70 68 68 74 70 79 79 79 81 84 84 82 82 79 77 80 77 86 85 86 89 87 90 90 90 95 97 89 87 95 112 102 100
34 85 82 65 74 81 82 79 75 69 69 68 67 68 67 68 69 75 78 78 79 80 80 80 81 83 84 84 89 90 92 94 95 95 86 88 92 103 106 109 108 93 109 109
Wind_Direction
260 261 262 265 264 269 270 273 274 277 280 279 285 286 287 289 288 316 304 308 321 317 331 308 316 313 317 319 325 324 328 333 337 343 339 339 339 327 323 321 316 300 304 297
258 260 263 262 263 264 271 271 273 280 294 279 284 283 298 288 297 315 302 303 314 310 312 306 308 314 315 324 319 324 333 332 333 333 341 342 332 336 329 323 318 315 309 297
251 256 260 259 260 264 272 268 270 269 273 279 282 282 284 290 285 294 297 298 304 307 325 306 306 309 311 313 322 324 327 331 330 337 329 332 336 329 333 327 323 313 311 308
253 253 260 260 261 256 270 271 271 269 276 277 274 284 283 293 286 292 289 292 294 301 303 307 309 318 326 323 317 321 325 325 328 329 336 326 326 326 329 327 327 321 317 315
248 261 259 261 258 258 260 264 271 266 266 276 284 281 283 282 294 287 288 307 298 296 300 306 301 322 319 318 321 319 314 322 324 328 319 322 333 324 323 324 320 332 315 315
250 259 254 255 262 262 258 267 271 262 273 278 276 281 288 281 283 285 288 290 296 293 300 298 302 305 306 310 313 318 315 319 321 312 324 314 329 326 319 319 318 320 318 318
251 254 254 257 261 259 258 265 261 268 263 264 279 280 278 293 288 284 293 293 291 293 295 296 296 300 301 304 312 309 312 318 304 308 318 308 326 328 320 312 314 314 316 316
258 258 249 259 263 264 260 263 260 263 276 269 268 270 275 287 274 280 292 283 293 300 293 294 295 303 301 305 307 304 311 317 313 297 309 303 320 322 309 309 309 315 307 311
256 248 248 255 254 256 268 246 263 264 261 271 267 277 282 275 278 279 279 284 287 286 288 292 295 299 301 294 302 302 306 308 310 291 308 303 318 301 307 305 304 308 306 309
250 249 256 259 257 252 261 265 265 262 261 265 265 267 275 274 281 266 280 274 289 289 282 295 295 295 298 298 300 297 302 308 291 294 298 310 313 303 302 302 301 301 304 304
250 255 252 255 256 255 263 259 262 269 264 262 265 273 276 140 159 275 288 287 282 288 287 292 301 292 294 292 300 300 303 298 293 301 294 333 338 310 298 298 297 297 301 300
257 255 252 235 256 252 255 260 262 264 263 259 260 264 259 273 276 279 298 282 282 272 272 294 291 293 286 289 299 289 315 296 288 287 292 291 287 314 292 294 296 297 296 296
253 252 255 254 252 254 261 260 259 260 257 258 262 261 263 244 272 299 264 269 279 279 273 275 274 278 279 292 304 284 280 285 281 280 280 325 286 287 287 288 290 292 294 294
252 252 251 253 252 251 251 251 253 260 261 261 257 260 268 275 287 283 282 280 269 268 286 272 272 270 281 293 278 287 279 283 279 279 281 280 283 282 285 291 293 288 290 290
250 249 249 252 254 255 255 251 249 250 263 258 261 273 254 256 257 272 261 280 281 267 267 268 269 282 278 289 274 278 282 296 280 279 278 281 297 285 287 285 291 286 288 290
247 197 254 249 251 258 254 252 257 253 253 253 262 256 261 251 285 276 274 267 272 267 267 268 269 289 271 274 270 273 276 320 319 278 275 280 283 285 285 287 285 283 286 305
245 248 221 250 249 250 253 257 257 254 248 259 254 259 262 267 270 262 274 263 267 265 268 269 272 275 272 299 285 292 275 273 277 277 276 279 281 283 284 286 285 285 297 290
240 245 248 249 227 249 252 255 258 261 260 255 267 260 258 260 266 264 267 269 271 269 268 274 272 273 280 312 271 275 289 273 275 276 277 283 281 284 285 283 286 286 285 288
236 240 244 247 250 251 252 258 257 260 257 258 258 259 261 263 263 265 267 268 271 272 275 275 283 297 279 280 271 273 274 273 277 278 276 279 280 281 282 286 282 288 290 289
235 234 238 241 247 253 256 255 271 256 258 264 265 265 265 265 265 266 269 272 275 276 270 274 290 286 283 282 278 295 275 277 278 276 279 276 280 279 281 279 284 284 287 284
231 233 235 238 246 247 249 254 252 253 258 261 259 261 264 263 268 270 273 274 277 280 281 283 284 284 284 281 281 278 282 280 280 280 278 278 277 277 277 283 285 288 288 291
229 237 235 235 238 248 248 252 252 251 252 270 257 260 269 264 267 271 273 274 278 279 281 282 283 286 286 286 282 284 284 282 286 283 280 282 283 280 287 287 285 286 286 284
223 229 234 238 237 239 244 248 250 252 254 255 257 257 261 265 267 282 275 275 276 278 280 281 284 287 285 283 284 295 289 289 287 288 286 281 285 287 286 285 284 283 285 287
228 236 253 236 234 237 242 245 247 248 250 252 253 254 259 263 265 267 270 274 277 279 280 282 286 286 289 290 291 294 293 293 292 291 289 285 285 284 284 283 285 284 286 291
249 254 264 262 228 248 241 243 243 247 248 252 255 259 258 261 263 266 269 272 274 275 277 281 283 284 285 290 287 291 288 289 284 286 282 285 281 282 283 288 284 289 286 287
230 217 220 224 226 230 235 239 244 248 251 253 255 257 260 264 267 266 267 270 273 275 277 279 281 280 284 285 284 285 284 287 286 288 285 284 285 285 285 286 291 289 290 292